(276848) = 2000 WO46 = 2004 RK64

Discovered at Socorro on 2004-09-08 by LINEAR.

Orbit

Orbit type: Main Belt

Note: WebGL enabled browser required.

epoch2024-03-31.0
epoch JD2460400.5
perihelion date2022-07-20.69379
perihelion JD2459781.19379
argument of perihelion (°)198.67631
ascending node (°)195.27976
inclination (°)3.54170
eccentricity0.1804293
perihelion distance (AU)2.1945029
Tisserand w.r.t. Jupiter3.4
ΔV w.r.t. Earth (km/sec)9.4
semimajor axis (AU)2.6776248
mean anomaly (°)139.31077
mean daily motion (°/day)0.22494650
aphelion distance (AU)3.161
period (years)4.38
P-vector [x]0.82962718
P-vector [y]0.51979362
P-vector [z]0.20379729
Q-vector [x]-0.55808039
Q-vector [y]0.78269759
Q-vector [z]0.27555538
absolute magnitude16.76
phase slope0.15
uncertainty0
referenceMPEC 2024-F14
observations used257
oppositions14
arc length (days)8517
first opposition used2000
last opposition used2024
residual rms (arc-secs)0.75
perturbers coarse indicatorM-v
perturbers precise indicator003Ek
first observation date used2000-11-21.0
last observation date used2024-03-17.0
computer nameMPCLINUX
JD of orbit computation2456670.849493
perihelion JD uncertainty (days)8.7757E-05
argument of perihelion uncertainty (°)9.0809E-05
ascending node uncertainty (°)8.6766E-05
inclination uncertainty (°)1.0103E-05
eccentricity uncertainty 9.4665E-08
perihelion distance uncertainty (AU)2.5012E-07
Minimum Orbit Intersection Distances (in AU)
for orbit epoch: 2460400.5, reference: E2024-GD4
Mercury1.86617
Venus1.47074
Earth1.2013
Mars0.73586
Jupiter2.26544
Saturn6.45075
Uranus15.4008
Neptune27.5017

Observations

261 total observations over interval: 2000 11 21.32690 – 2024 03 17.515802
These data are available for download (format description).

Date (UT) J2000 RA J2000 Dec Magn Location Ref
2000 11 21.32690 04 16 58.27 +16 37 59.8 19.6   704 – Lincoln Laboratory ETS, New Mexico MPS 22883
2000 11 21.34279 04 16 57.24 +16 37 55.5 19.7   704 – Lincoln Laboratory ETS, New Mexico MPS 22883
2000 11 21.35790 04 16 56.31 +16 37 52.1 19.3   704 – Lincoln Laboratory ETS, New Mexico MPS 22883
2000 11 21.37398 04 16 55.36 +16 37 47.6 19.3   704 – Lincoln Laboratory ETS, New Mexico MPS 22883
2000 11 27.22620 04 11 28.05 +16 15 20.5 19.1   704 – Lincoln Laboratory ETS, New Mexico MPS 22883
2000 11 27.26945 04 11 25.45 +16 15 12.1 19.4   704 – Lincoln Laboratory ETS, New Mexico MPS 22883
2000 11 27.28388 04 11 24.64 +16 15 08.4 19.8   704 – Lincoln Laboratory ETS, New Mexico MPS 22883
2000 12 29.07731 03 50 05.47 +15 08 32.2 20.4 V 691 – Steward Observatory, Kitt Peak-Spacewatch MPS 114449
2000 12 29.10445 03 50 05.01 +15 08 32.3 20.4 V 691 – Steward Observatory, Kitt Peak-Spacewatch MPS 114449
2000 12 29.13175 03 50 04.55 +15 08 32.0 20.2 V 691 – Steward Observatory, Kitt Peak-Spacewatch MPS 114449
2004 09 08.23811 23 58 18.20 +02 19 56.1 19.4   704 – Lincoln Laboratory ETS, New Mexico MPS 112876
2004 09 08.24999 23 58 17.68 +02 19 51.9 19.8   704 – Lincoln Laboratory ETS, New Mexico MPS 112876
2004 09 08.27381 23 58 16.64 +02 19 43.5 19.9   704 – Lincoln Laboratory ETS, New Mexico MPS 112876
2004 09 08.28634 23 58 16.16 +02 19 38.5 19.7   704 – Lincoln Laboratory ETS, New Mexico MPS 112876
2004 09 09.23301 23 57 37.48 +02 13 51.7 19.5   704 – Lincoln Laboratory ETS, New Mexico MPS 112876
2004 09 09.24440 23 57 37.01 +02 13 47.2 19.5   704 – Lincoln Laboratory ETS, New Mexico MPS 112876
2004 09 09.25580 23 57 36.49 +02 13 43.0 19.5   704 – Lincoln Laboratory ETS, New Mexico MPS 112876
2004 09 09.26721 23 57 36.04 +02 13 38.9 19.6   704 – Lincoln Laboratory ETS, New Mexico MPS 112876
2004 09 09.27861 23 57 35.54 +02 13 34.4 19.6   704 – Lincoln Laboratory ETS, New Mexico MPS 112876
2004 09 11.40539 23 56 05.65 +02 00 09.0 19.5 V 691 – Steward Observatory, Kitt Peak-Spacewatch MPS 113069
2004 09 11.43273 23 56 04.42 +01 59 58.4 19.5 V 691 – Steward Observatory, Kitt Peak-Spacewatch MPS 113069
2004 09 11.46031 23 56 03.18 +01 59 47.7 19.5 V 691 – Steward Observatory, Kitt Peak-Spacewatch MPS 113069
2004 09 13.23460 23 54 46.44 +01 48 11.4 18.6   704 – Lincoln Laboratory ETS, New Mexico MPS 113069
2004 09 13.24615 23 54 45.90 +01 48 06.5 19.6   704 – Lincoln Laboratory ETS, New Mexico MPS 113069
2004 09 13.25771 23 54 45.36 +01 48 01.4 19.5   704 – Lincoln Laboratory ETS, New Mexico MPS 113069
2004 09 13.26925 23 54 44.81 +01 47 57.3 19.2   704 – Lincoln Laboratory ETS, New Mexico MPS 113069
2004 09 13.28080 23 54 44.25 +01 47 53.1 19.4   704 – Lincoln Laboratory ETS, New Mexico MPS 113069
2004 09 13.28226 23 54 44.16 +01 47 54.8 21.4 R 683 – Goodricke-Pigott Observatory, Tucson MPS 113069
2004 09 13.29564 23 54 43.70 +01 47 49.2 20.4 R 683 – Goodricke-Pigott Observatory, Tucson MPS 113069
2004 09 13.30901 23 54 42.97 +01 47 44.0 20.7 R 683 – Goodricke-Pigott Observatory, Tucson MPS 113069
2004 09 17.27000 23 51 44.79 +01 20 40.1 19.4   704 – Lincoln Laboratory ETS, New Mexico MPS 113069
2004 09 17.28168 23 51 44.26 +01 20 35.1 19.0   704 – Lincoln Laboratory ETS, New Mexico MPS 113069
2004 09 17.29335 23 51 43.67 +01 20 30.9 19.5   704 – Lincoln Laboratory ETS, New Mexico MPS 113069
2004 09 17.30503 23 51 43.11 +01 20 25.4 19.6   704 – Lincoln Laboratory ETS, New Mexico MPS 113069
2004 09 17.31672 23 51 42.50 +01 20 20.6 19.6   704 – Lincoln Laboratory ETS, New Mexico MPS 113069
2004 10 07.23226 23 37 17.75 -00 58 42.6 19.3   704 – Lincoln Laboratory ETS, New Mexico MPS 163810
2004 10 07.24297 23 37 17.32 -00 58 47.5 19.7   704 – Lincoln Laboratory ETS, New Mexico MPS 163810
2004 10 07.25367 23 37 16.93 -00 58 51.4 19.6   704 – Lincoln Laboratory ETS, New Mexico MPS 163810
2004 10 07.26437 23 37 16.54 -00 58 55.1 19.6   704 – Lincoln Laboratory ETS, New Mexico MPS 163810
2004 10 07.27507 23 37 16.14 -00 59 00.4 20.4   704 – Lincoln Laboratory ETS, New Mexico MPS 163810
2006 01 29.97108 09 53 52.64 +08 05 19.3   621 – Bergisch Gladbach MPS 162788
2006 01 29.97873 09 53 52.22 +08 05 20.6   621 – Bergisch Gladbach MPS 162788
2006 01 29.98638 09 53 51.88 +08 05 23.0 20   621 – Bergisch Gladbach MPS 162788
2007 04 18.27452 14 46 53.31 -14 00 25.9 21.3 V 691 – Steward Observatory, Kitt Peak-Spacewatch MPS 206896
2007 04 18.29219 14 46 52.44 -14 00 22.4 21.6 V 691 – Steward Observatory, Kitt Peak-Spacewatch MPS 206896
2007 04 18.30987 14 46 51.62 -14 00 17.0 21.8 V 691 – Steward Observatory, Kitt Peak-Spacewatch MPS 206896
2007 05 09.34567 14 29 25.29 -12 19 29.3 21.6 V G96 – Mt. Lemmon Survey MPS 208908
2007 05 09.35123 14 29 24.97 -12 19 27.8 20.7 V G96 – Mt. Lemmon Survey MPS 208908
2007 05 09.35676 14 29 24.72 -12 19 26.2 21.2 V G96 – Mt. Lemmon Survey MPS 208908
2007 05 09.36233 14 29 24.43 -12 19 24.0 21.6 V G96 – Mt. Lemmon Survey MPS 208908
2010 03 25.46819 06 38 10.87 +19 20 23.4   C51 – WISE MPS 320627
2010 03 25.600498 06 38 18.46 +19 20 30.4   C51 – WISE MPS 320627
2010 03 25.73280 06 38 26.09 +19 20 34.9   C51 – WISE MPS 371983
2010 03 25.865105 06 38 33.80 +19 20 40.4   C51 – WISE MPS 371983
2010 03 25.931193 06 38 37.64 +19 20 42.1   C51 – WISE MPS 320627
2010 03 25.931321 06 38 37.71 +19 20 42.9   C51 – WISE MPS 320627
2010 03 25.997410 06 38 41.51 +19 20 45.3   C51 – WISE MPS 320627
2010 03 26.12971 06 38 49.24 +19 20 51.1   C51 – WISE MPS 320627
2010 03 26.32823 06 39 00.93 +19 20 57.5   C51 – WISE MPS 371983
2010 03 26.592841 06 39 16.51 +19 21 08.2   C51 – WISE MPS 320627
2010 03 26.72515 06 39 24.31 +19 21 12.5   C51 – WISE MPS 320627
2011 03 30.32696 12 55 13.54 -06 08 09.9 20.8 V G96 – Mt. Lemmon Survey MPS 375517
2011 03 30.33340 12 55 13.22 -06 08 07.3 21.1 V G96 – Mt. Lemmon Survey MPS 375517
2011 03 30.33980 12 55 12.90 -06 08 04.8 21.2 V G96 – Mt. Lemmon Survey MPS 375517
2011 03 30.34619 12 55 12.57 -06 08 02.7 20.6 V G96 – Mt. Lemmon Survey MPS 375517
2011 04 29.21091 12 33 07.66 -03 20 02.2 21.4 V G96 – Mt. Lemmon Survey MPS 380024
2011 04 29.21613 12 33 07.48 -03 20 00.9 21.9 V G96 – Mt. Lemmon Survey MPS 380024
2011 04 29.22140 12 33 07.27 -03 19 58.9 21.0 V G96 – Mt. Lemmon Survey MPS 380024
2011 04 29.22663 12 33 07.12 -03 19 57.9 21.2 V G96 – Mt. Lemmon Survey MPS 380024
2013 09 14.37161 02 49 06.42 +15 30 27.9 20.0 V G96 – Mt. Lemmon Survey MPS 477562
2013 09 14.38061 02 49 06.55 +15 30 27.7 20.2 V G96 – Mt. Lemmon Survey MPS 477562
2013 09 14.38960 02 49 06.66 +15 30 26.9 20.2 V G96 – Mt. Lemmon Survey MPS 477562
2013 09 14.39859 02 49 06.80 +15 30 26.3 20.2 V G96 – Mt. Lemmon Survey MPS 477562
2013 10 05.28885 02 47 34.61 +14 33 31.9 20.0 V 691 – Steward Observatory, Kitt Peak-Spacewatch MPS 482122
2013 10 05.30655 02 47 34.14 +14 33 27.6 19.9 V 691 – Steward Observatory, Kitt Peak-Spacewatch MPS 482122
2013 10 05.32425 02 47 33.65 +14 33 23.2 19.5 V 691 – Steward Observatory, Kitt Peak-Spacewatch MPS 482122
2013 10 09.29506 02 45 46.48 +14 15 10.8 19.8 V 691 – Steward Observatory, Kitt Peak-Spacewatch MPS 482122
2013 10 09.31296 02 45 45.91 +14 15 05.6 20.0 V 691 – Steward Observatory, Kitt Peak-Spacewatch MPS 482122
2013 10 09.33086 02 45 45.34 +14 15 00.6 19.7 V 691 – Steward Observatory, Kitt Peak-Spacewatch MPS 482122
2013 10 13.32534 02 43 32.39 +13 54 41.4 19.8 V 691 – Steward Observatory, Kitt Peak-Spacewatch MPS 482122
2013 10 13.34652 02 43 31.57 +13 54 35.1 19.7 V 691 – Steward Observatory, Kitt Peak-Spacewatch MPS 482122
2013 10 13.36424 02 43 30.87 +13 54 29.2 19.8 V 691 – Steward Observatory, Kitt Peak-Spacewatch MPS 482122
2013 10 24.32461 02 35 45.47 +12 51 03.3 18.8 V G96 – Mt. Lemmon Survey MPS 483464
2013 10 24.32930 02 35 45.24 +12 51 01.6 18.8 V G96 – Mt. Lemmon Survey MPS 483464
2013 10 24.33399 02 35 45.00 +12 50 59.8 18.8 V G96 – Mt. Lemmon Survey MPS 483464
2013 10 24.33870 02 35 44.77 +12 50 58.1 18.8 V G96 – Mt. Lemmon Survey MPS 483464
2013 10 30.27868 02 30 54.31 +12 14 08.3 18.8 V 703 – Catalina Sky Survey MPS 485068
2013 10 30.28322 02 30 54.09 +12 14 06.7 18.7 V 703 – Catalina Sky Survey MPS 485068
2013 10 30.28776 02 30 53.77 +12 14 04.6 18.8 V 703 – Catalina Sky Survey MPS 485068
